Location: Penton Mewsey
(51.2167°N, 1.5167°W)
Time: 03:00:10
(UTC+00:00)

SL-8 R/B - Pass Details

Date: 11 August 2020
Orbit: 657 x 667 km, 48.4° (Epoch: 22 September)

Event Time Altitude Azimuth Distance (km) Brightness Sun altitude
Rises 20:07:31 0° 279° (W) 3,005 8.5 -5.4°
Reaches altitude 10° 20:10:27 10° 261° (W) 2,089 7.1 -5.7°
Maximum altitude 20:13:47 19° 217° (SW) 1,582 5.7 -6.2°
Drops below altitude 10° 20:17:06 10° 174° (S) 2,083 5.9 -6.6°
Enters shadow 20:19:11 - 160° (SSE) 2,710 6.4 -6.9°
